,,,PA_Meas_PMT16A,,PR_Meas_QMR101_102,,RH_Meas_QMH101,,SR_Meas_QMS101,,TA_Meas_QMH101,,GenWind,,GenWind,
date,time,status,PA,status,PR,status,RH,status,SR,status,TA,status,DirAvg,status,SpdAvg,
2009-08-28, 00:00:04,VALID,1009.95,VALID,0,VALID,90.2279,VALID,0.105969,VALID,25.3877,VALID,197,VALID,0.157813,
2009-08-28, 00:01:04,VALID,1009.96,VALID,0,VALID,90.2813,VALID,0,VALID,25.3877,VALID,197,VALID,0,
2009-08-28, 00:02:04,VALID,1009.95,VALID,0,VALID,90.3652,VALID,0.105969,VALID,25.3488,VALID,197,VALID,0,
2009-08-28, 00:03:04,VALID,1009.96,VALID,0,VALID,90.5406,VALID,0,VALID,25.3293,VALID,197,VALID,0.119141,
2009-08-28, 00:04:04,VALID,1010,VALID,0,VALID,90.716,VALID,0,VALID,25.3098,VALID,197,VALID,0.00195313,
2009-08-28, 00:05:04,VALID,1009.98,VALID,0,VALID,90.8456,VALID,0,VALID,25.3098,VALID,225,VALID,0.485547,
2009-08-28, 00:06:04,VALID,1010,VALID,0,VALID,90.8456,VALID,0,VALID,25.3507,VALID,237,VALID,0.430859,
2009-08-28, 00:07:04,VALID,1009.99,VALID,0,VALID,90.6931,VALID,0,VALID,25.3897,VALID,252,VALID,0.333984,
2009-08-28, 00:08:04,VALID,1009.99,VALID,0,VALID,90.5406,VALID,0,VALID,25.4072,VALID,220,VALID,0.644922,
2009-08-28, 00:09:04,VALID,1009.95,VALID,0,VALID,90.3804,VALID,0.105969,VALID,25.4657,VALID,221,VALID,0.367188,
2009-08-28, 00:10:04,VALID,1009.96,VALID,0,VALID,90.1822,VALID,0.105969,VALID,25.4657,VALID,184,VALID,0.410156,
2009-08-28, 00:11:04,VALID,1009.93,VALID,0,VALID,90.1364,VALID,0,VALID,25.4657,VALID,265,VALID,0.394141,
2009-08-28, 00:12:04,VALID,1009.95,VALID,0,VALID,90.0449,VALID,0.105969,VALID,25.4657,VALID,223,VALID,0.649609,
2009-08-28, 00:13:04,VALID,1009.94,VALID,0,VALID,90.0983,VALID,0,VALID,25.4871,VALID,223,VALID,0.150781,
2009-08-28, 00:14:04,VALID,1009.93,VALID,0,VALID,89.9991,VALID,0,VALID,25.4852,VALID,244,VALID,0.507422,
2009-08-28, 00:15:04,VALID,1009.94,VALID,0,VALID,89.9,VALID,0,VALID,25.4852,VALID,248,VALID,0.296094,
2009-08-28, 00:16:04,VALID,1009.94,VALID,0,VALID,89.7856,VALID,0,VALID,25.5047,VALID,247,VALID,0.196484,
2009-08-28, 00:17:04,VALID,1009.94,VALID,0,VALID,89.7322,VALID,0,VALID,25.5261,VALID,213,VALID,0.420312,
2009-08-28, 00:18:04,VALID,1009.93,VALID,0,VALID,89.656,VALID,0.105969,VALID,25.5261,VALID,213,VALID,0,
2009-08-28, 00:19:04,VALID,1009.93,VALID,0,VALID,89.6789,VALID,0,VALID,25.4852,VALID,213,VALID,0.00429688,
2009-08-28, 00:20:04,VALID,1009.94,VALID,0,VALID,89.5721,VALID,0,VALID,25.4852,VALID,213,VALID,0.0210938,
2009-08-28, 00:21:04,VALID,1009.94,VALID,0,VALID,89.6865,VALID,0,VALID,25.4267,VALID,213,VALID,0.00859375,
2009-08-28, 00:22:04,VALID,1009.93,VALID,0,VALID,89.6179,VALID,0,VALID,25.4092,VALID,213,VALID,0.153125,
2009-08-28, 00:23:04,VALID,1009.91,VALID,0,VALID,89.9153,VALID,0,VALID,25.3702,VALID,213,VALID,0.2,
2009-08-28, 00:24:04,VALID,1009.91,VALID,0,VALID,90.0754,VALID,0.105969,VALID,25.3098,VALID,165,VALID,0.358594,
2009-08-28, 00:25:04,VALID,1009.84,VALID,0,VALID,90.144,VALID,0,VALID,25.2922,VALID,165,VALID,0,
2009-08-28, 00:26:04,VALID,1009.87,VALID,0,VALID,90.4796,VALID,0,VALID,25.2337,VALID,165,VALID,0.1,
2009-08-28, 00:27:04,VALID,1009.88,VALID,0,VALID,90.6778,VALID,0,VALID,25.1733,VALID,165,VALID,0,
2009-08-28, 00:28:04,VALID,1009.85,VALID,0,VALID,91.1888,VALID,0,VALID,25.1343,VALID,165,VALID,0,
2009-08-28, 00:29:04,VALID,1009.83,VALID,0,VALID,91.5319,VALID,0,VALID,25.1167,VALID,165,VALID,0,
2009-08-28, 00:30:04,VALID,1009.85,VALID,0,VALID,92.264,VALID,0,VALID,25.0759,VALID,165,VALID,0,
2009-08-28, 00:31:04,VALID,1009.83,VALID,0,VALID,92.6758,VALID,0,VALID,25.0583,VALID,165,VALID,0,
2009-08-28, 00:32:04,VALID,1009.82,VALID,0,VALID,92.9274,VALID,0,VALID,24.9784,VALID,165,VALID,0,
2009-08-28, 00:33:04,VALID,1009.81,VALID,0,VALID,93.2553,VALID,0,VALID,24.9218,VALID,165,VALID,0,
2009-08-28, 00:34:04,VALID,1009.82,VALID,0,VALID,93.446,VALID,0,VALID,24.8633,VALID,165,VALID,0,
2009-08-28, 00:35:04,VALID,1009.86,VALID,0,VALID,93.7663,VALID,0,VALID,24.8438,VALID,165,VALID,0,
2009-08-28, 00:36:04,VALID,1009.87,VALID,0,VALID,93.9493,VALID,0,VALID,24.7854,VALID,165,VALID,0,
2009-08-28, 00:37:04,VALID,1009.87,VALID,0,VALID,94.1476,VALID,0,VALID,24.7464,VALID,165,VALID,0,
2009-08-28, 00:38:04,VALID,1009.9,VALID,0,VALID,94.2848,VALID,0,VALID,24.7269,VALID,165,VALID,0,
2009-08-28, 00:39:04,VALID,1009.89,VALID,0,VALID,94.3763,VALID,0,VALID,24.6276,VALID,165,VALID,0,
2009-08-28, 00:40:04,VALID,1009.92,VALID,0,VALID,94.506,VALID,0.105969,VALID,24.6081,VALID,165,VALID,0,
2009-08-28, 00:41:04,VALID,1009.92,VALID,0,VALID,94.6585,VALID,0.105969,VALID,24.5905,VALID,165,VALID,0,
2009-08-28, 00:42:04,VALID,1009.9,VALID,0,VALID,94.7576,VALID,0.105969,VALID,24.571,VALID,165,VALID,0,
2009-08-28, 00:43:04,VALID,1009.91,VALID,0,VALID,94.7805,VALID,0.105969,VALID,24.5515,VALID,165,VALID,0,
2009-08-28, 00:44:04,VALID,1009.93,VALID,0,VALID,94.8034,VALID,0.105969,VALID,24.5301,VALID,165,VALID,0,
2009-08-28, 00:45:04,VALID,1009.92,VALID,0,VALID,94.75,VALID,0.105969,VALID,24.5125,VALID,165,VALID,0,
2009-08-28, 00:46:04,VALID,1009.88,VALID,0,VALID,94.7652,VALID,0,VALID,24.4717,VALID,165,VALID,0,
2009-08-28, 00:47:04,VALID,1009.87,VALID,0,VALID,94.9559,VALID,0.105969,VALID,24.4735,VALID,165,VALID,0,
2009-08-28, 00:48:04,VALID,1009.87,VALID,0,VALID,95.0398,VALID,0.105969,VALID,24.4327,VALID,165,VALID,0,
2009-08-28, 00:49:04,VALID,1009.86,VALID,0,VALID,95.0931,VALID,0.105969,VALID,24.4345,VALID,165,VALID,0,
2009-08-28, 00:50:04,VALID,1009.87,VALID,0,VALID,95.0703,VALID,0.105969,VALID,24.3742,VALID,165,VALID,0,
2009-08-28, 00:51:04,VALID,1009.87,VALID,0,VALID,95.1999,VALID,0,VALID,24.3956,VALID,165,VALID,0,
2009-08-28, 00:52:04,VALID,1009.85,VALID,0,VALID,95.2914,VALID,0.105969,VALID,24.3742,VALID,165,VALID,0,
2009-08-28, 00:53:04,VALID,1009.85,VALID,0,VALID,95.299,VALID,0,VALID,24.3566,VALID,165,VALID,0,
2009-08-28, 00:54:04,VALID,1009.86,VALID,0,VALID,95.3448,VALID,0,VALID,24.3371,VALID,165,VALID,0,
2009-08-28, 00:55:04,VALID,1009.84,VALID,0,VALID,95.4363,VALID,0.105969,VALID,24.3566,VALID,183,VALID,0.252344,
2009-08-28, 00:56:04,VALID,1009.86,VALID,0,VALID,95.4516,VALID,0.105969,VALID,24.3352,VALID,200,VALID,0.0816406,
2009-08-28, 00:57:04,VALID,1009.84,VALID,0,VALID,95.2914,VALID,0.105969,VALID,24.3742,VALID,200,VALID,0.10625,
2009-08-28, 00:58:04,VALID,1009.82,VALID,0,VALID,95.1847,VALID,0.105969,VALID,24.3956,VALID,200,VALID,0.0773437,
2009-08-28, 00:59:04,VALID,1009.81,VALID,0,VALID,95.0779,VALID,0.105969,VALID,24.415,VALID,180,VALID,0.112109,
2009-08-28, 01:00:04,VALID,1009.79,VALID,0,VALID,94.9101,VALID,0.105969,VALID,24.4327,VALID,180,VALID,0.317187,
2009-08-28, 01:01:04,VALID,1009.76,VALID,0,VALID,94.7652,VALID,0,VALID,24.4522,VALID,170,VALID,1.01836,
2009-08-28, 01:02:04,VALID,1009.76,VALID,0,VALID,94.4221,VALID,0,VALID,24.532,VALID,164,VALID,0.125391,
2009-08-28, 01:03:04,VALID,1009.78,VALID,0,VALID,94.0865,VALID,0.105969,VALID,24.5496,VALID,164,VALID,0.0164062,
2009-08-28, 01:04:04,VALID,1009.77,VALID,0,VALID,93.9112,VALID,0.105969,VALID,24.6099,VALID,164,VALID,0,
2009-08-28, 01:05:04,VALID,1009.74,VALID,0,VALID,93.7739,VALID,0.105969,VALID,24.6276,VALID,164,VALID,0.0488281,
2009-08-28, 01:06:04,VALID,1009.74,VALID,0,VALID,93.5375,VALID,0.105969,VALID,24.686,VALID,164,VALID,0.272656,
2009-08-28, 01:07:04,VALID,1009.76,VALID,0,VALID,93.3392,VALID,0.105969,VALID,24.7464,VALID,164,VALID,0.133594,
2009-08-28, 01:08:04,VALID,1009.75,VALID,0,VALID,93.2096,VALID,0,VALID,24.7269,VALID,186,VALID,0.332031,
2009-08-28, 01:09:04,VALID,1009.73,VALID,0,VALID,93.2096,VALID,0,VALID,24.7659,VALID,215,VALID,0.225781,
2009-08-28, 01:10:04,VALID,1009.7,VALID,0,VALID,93.1181,VALID,0,VALID,24.8244,VALID,215,VALID,0.141797,
2009-08-28, 01:11:04,VALID,1009.68,VALID,0,VALID,92.9351,VALID,0,VALID,24.8244,VALID,215,VALID,0,
2009-08-28, 01:12:04,VALID,1009.67,VALID,0,VALID,92.7597,VALID,0,VALID,24.8244,VALID,215,VALID,0,
2009-08-28, 01:13:04,VALID,1009.66,VALID,0,VALID,92.6682,VALID,0,VALID,24.8244,VALID,215,VALID,0,
2009-08-28, 01:14:04,VALID,1009.65,VALID,0,VALID,92.752,VALID,0,VALID,24.8049,VALID,213,VALID,0.0183594,
2009-08-28, 01:15:04,VALID,1009.64,VALID,0,VALID,92.9122,VALID,0.105969,VALID,24.7835,VALID,214,VALID,0.257031,
2009-08-28, 01:16:04,VALID,1009.62,VALID,0,VALID,93.0189,VALID,0,VALID,24.8244,VALID,202,VALID,0.873047,
2009-08-28, 01:17:04,VALID,1009.61,VALID,0,VALID,92.8969,VALID,0,VALID,24.8633,VALID,206,VALID,0.549219,
2009-08-28, 01:18:04,VALID,1009.55,VALID,0,VALID,92.7673,VALID,0.105969,VALID,24.9023,VALID,204,VALID,0.546094,
2009-08-28, 01:19:04,VALID,1009.53,VALID,0,VALID,92.5843,VALID,0.105969,VALID,24.9413,VALID,237,VALID,0.151562,
2009-08-28, 01:20:04,VALID,1009.55,VALID,0,VALID,92.3479,VALID,0,VALID,24.9413,VALID,237,VALID,0,
2009-08-28, 01:21:04,VALID,1009.53,VALID,0,VALID,92.2869,VALID,0,VALID,24.9199,VALID,237,VALID,0,
2009-08-28, 01:22:04,VALID,1009.55,VALID,0,VALID,92.2945,VALID,0.105969,VALID,24.9218,VALID,237,VALID,0,
2009-08-28, 01:23:04,VALID,1009.53,VALID,0,VALID,92.325,VALID,0,VALID,24.9218,VALID,237,VALID,0,
2009-08-28, 01:24:04,VALID,1009.52,VALID,0,VALID,92.4089,VALID,0,VALID,24.9023,VALID,237,VALID,0,
2009-08-28, 01:25:04,VALID,1009.48,VALID,0,VALID,92.4623,VALID,0.105969,VALID,24.8828,VALID,237,VALID,0,
2009-08-28, 01:26:04,VALID,1009.49,VALID,0,VALID,92.752,VALID,0,VALID,24.8633,VALID,237,VALID,0,
2009-08-28, 01:27:04,VALID,1009.49,VALID,0,VALID,93.0189,VALID,0,VALID,24.8244,VALID,237,VALID,0,
2009-08-28, 01:28:04,VALID,1009.45,VALID,0,VALID,93.2401,VALID,0,VALID,24.8049,VALID,237,VALID,0,
2009-08-28, 01:29:04,VALID,1009.45,VALID,0,VALID,93.2935,VALID,0,VALID,24.7055,VALID,237,VALID,0,
2009-08-28, 01:30:04,VALID,1009.42,VALID,0,VALID,93.4307,VALID,0,VALID,24.6879,VALID,237,VALID,0.153906,
2009-08-28, 01:31:04,VALID,1009.42,VALID,0,VALID,93.6595,VALID,0,VALID,24.6276,VALID,237,VALID,0.0316406,
2009-08-28, 01:32:04,VALID,1009.39,VALID,0,VALID,93.6519,VALID,0,VALID,24.5691,VALID,237,VALID,0,
2009-08-28, 01:33:04,VALID,1009.37,VALID,0,VALID,93.9798,VALID,0,VALID,24.571,VALID,237,VALID,0,
2009-08-28, 01:34:04,VALID,1009.35,VALID,0,VALID,94.2696,VALID,0,VALID,24.5106,VALID,237,VALID,0,
2009-08-28, 01:35:04,VALID,1009.34,VALID,0,VALID,94.5288,VALID,0,VALID,24.4522,VALID,237,VALID,0,
2009-08-28, 01:36:04,VALID,1009.34,VALID,0,VALID,94.7042,VALID,0,VALID,24.415,VALID,237,VALID,0,
2009-08-28, 01:37:04,VALID,1009.34,VALID,0,VALID,94.7881,VALID,0,VALID,24.3566,VALID,237,VALID,0.0621094,
2009-08-28, 01:38:04,VALID,1009.36,VALID,0,VALID,94.9406,VALID,0,VALID,24.2981,VALID,237,VALID,0.0746094,
2009-08-28, 01:39:04,VALID,1009.34,VALID,0,VALID,94.994,VALID,0,VALID,24.2591,VALID,237,VALID,0,
2009-08-28, 01:40:05,VALID,1009.31,VALID,0,VALID,95.116,VALID,0,VALID,24.2202,VALID,165,VALID,0.399609,
2009-08-28, 01:41:05,VALID,1009.29,VALID,0,VALID,95.3143,VALID,0,VALID,24.2007,VALID,119,VALID,0.467187,
2009-08-28, 01:42:05,VALID,1009.29,VALID,0,VALID,95.5507,VALID,0,VALID,24.1404,VALID,113,VALID,0.322266,
2009-08-28, 01:43:05,VALID,1009.3,VALID,0,VALID,95.8176,VALID,0,VALID,24.1599,VALID,113,VALID,0.383203,
2009-08-28, 01:44:05,VALID,1009.27,VALID,0,VALID,95.8786,VALID,0,VALID,24.2007,VALID,113,VALID,0.460938,
2009-08-28, 01:45:05,VALID,1009.27,VALID,0,VALID,96.054,VALID,0,VALID,24.2591,VALID,113,VALID,0.210547,
2009-08-28, 01:46:05,VALID,1009.27,VALID,0,VALID,96.0235,VALID,0,VALID,24.2786,VALID,113,VALID,0.0875,
2009-08-28, 01:47:05,VALID,1009.28,VALID,0,VALID,95.9854,VALID,0,VALID,24.2981,VALID,113,VALID,0,
2009-08-28, 01:48:05,VALID,1009.29,VALID,0,VALID,95.9777,VALID,0,VALID,24.3158,VALID,113,VALID,0.335156,
2009-08-28, 01:49:05,VALID,1009.29,VALID,0,VALID,95.932,VALID,0,VALID,24.3956,VALID,113,VALID,0.282422,
2009-08-28, 01:50:05,VALID,1009.29,VALID,0,VALID,95.7413,VALID,0,VALID,24.415,VALID,112,VALID,0.410547,
2009-08-28, 01:51:05,VALID,1009.29,VALID,0,VALID,95.5354,VALID,0,VALID,24.3956,VALID,112,VALID,0.357422,
2009-08-28, 01:52:05,VALID,1009.28,VALID,0,VALID,95.2304,VALID,0,VALID,24.3761,VALID,112,VALID,0.298438,
2009-08-28, 01:53:05,VALID,1009.3,VALID,0,VALID,95.1313,VALID,0,VALID,24.3176,VALID,112,VALID,0.402344,
2009-08-28, 01:54:05,VALID,1009.3,VALID,0,VALID,95.2762,VALID,0,VALID,24.2786,VALID,112,VALID,0.392578,
2009-08-28, 01:55:05,VALID,1009.32,VALID,0,VALID,95.3372,VALID,0,VALID,24.2591,VALID,112,VALID,0.208203,
2009-08-28, 01:56:05,VALID,1009.34,VALID,0,VALID,95.4744,VALID,0,VALID,24.2202,VALID,112,VALID,0.125,
2009-08-28, 01:57:05,VALID,1009.35,VALID,0,VALID,95.6422,VALID,0,VALID,24.1812,VALID,112,VALID,0.125781,
2009-08-28, 01:58:05,VALID,1009.35,VALID,0,VALID,95.749,VALID,0,VALID,24.1617,VALID,112,VALID,0,
2009-08-28, 01:59:05,VALID,1009.36,VALID,0,VALID,95.7718,VALID,0,VALID,24.1227,VALID,112,VALID,0,
2009-08-28, 02:00:05,VALID,1009.35,VALID,0,VALID,96.0006,VALID,0,VALID,24.1227,VALID,112,VALID,0,
2009-08-28, 02:01:05,VALID,1009.34,VALID,0,VALID,96.1455,VALID,0,VALID,24.1032,VALID,112,VALID,0,
2009-08-28, 02:02:05,VALID,1009.31,VALID,0,VALID,96.2523,VALID,0,VALID,24.0837,VALID,112,VALID,0,
2009-08-28, 02:03:05,VALID,1009.28,VALID,0,VALID,96.2523,VALID,0,VALID,24.0837,VALID,112,VALID,0,
2009-08-28, 02:04:05,VALID,1009.26,VALID,0,VALID,96.2446,VALID,0,VALID,24.0253,VALID,112,VALID,0,
2009-08-28, 02:05:05,VALID,1009.26,VALID,0,VALID,96.1913,VALID,0,VALID,24.0253,VALID,112,VALID,0.247656,
2009-08-28, 02:06:05,VALID,1009.21,VALID,0,VALID,96.176,VALID,0,VALID,23.9863,VALID,112,VALID,0.216797,
2009-08-28, 02:07:05,VALID,1009.23,VALID,0,VALID,96.2599,VALID,0,VALID,23.926,VALID,112,VALID,0.309766,
2009-08-28, 02:08:05,VALID,1009.24,VALID,0,VALID,96.3743,VALID,0,VALID,23.9278,VALID,112,VALID,0.144922,
2009-08-28, 02:09:05,VALID,1009.3,VALID,0,VALID,96.3895,VALID,0,VALID,23.9084,VALID,112,VALID,0.009375,
2009-08-28, 02:10:05,VALID,1009.3,VALID,0,VALID,96.4353,VALID,0,VALID,23.8676,VALID,112,VALID,0,
2009-08-28, 02:11:05,VALID,1009.35,VALID,0,VALID,96.5268,VALID,0,VALID,23.8499,VALID,112,VALID,0,
2009-08-28, 02:12:05,VALID,1009.34,VALID,0,VALID,96.5649,VALID,0,VALID,23.8499,VALID,112,VALID,0,
2009-08-28, 02:13:05,VALID,1009.34,VALID,0,VALID,96.6183,VALID,0,VALID,23.8304,VALID,112,VALID,0,
2009-08-28, 02:14:05,VALID,1009.36,VALID,0,VALID,96.7174,VALID,0,VALID,23.8304,VALID,112,VALID,0.0566406,
2009-08-28, 02:15:05,VALID,1009.38,VALID,0,VALID,96.7632,VALID,0,VALID,23.8109,VALID,112,VALID,0,
2009-08-28, 02:16:05,VALID,1009.38,VALID,0,VALID,96.8699,VALID,0,VALID,23.8109,VALID,112,VALID,0,
2009-08-28, 02:17:05,VALID,1009.36,VALID,0,VALID,96.9081,VALID,0,VALID,23.7914,VALID,112,VALID,0,
2009-08-28, 02:18:05,VALID,1009.33,VALID,0,VALID,96.8852,VALID,0,VALID,23.772,VALID,112,VALID,0,
2009-08-28, 02:19:05,VALID,1009.33,VALID,0,VALID,96.9005,VALID,0,VALID,23.7507,VALID,112,VALID,0,
2009-08-28, 02:20:05,VALID,1009.31,VALID,0,VALID,96.9005,VALID,0,VALID,23.772,VALID,112,VALID,0,
2009-08-28, 02:21:05,VALID,1009.35,VALID,0,VALID,96.9157,VALID,0,VALID,23.7525,VALID,112,VALID,0,
2009-08-28, 02:22:05,VALID,1009.35,VALID,0,VALID,97.0148,VALID,0,VALID,23.772,VALID,112,VALID,0,
2009-08-28, 02:23:05,VALID,1009.32,VALID,0,VALID,97.1216,VALID,0,VALID,23.8109,VALID,112,VALID,0,
2009-08-28, 02:24:05,VALID,1009.31,VALID,0,VALID,97.1826,VALID,0,VALID,23.8694,VALID,112,VALID,0.0855469,
2009-08-28, 02:25:05,VALID,1009.29,VALID,0,VALID,97.1902,VALID,0.105969,VALID,23.8481,VALID,112,VALID,0.390625,
2009-08-28, 02:26:05,VALID,1009.27,VALID,0,VALID,97.1216,VALID,0,VALID,23.8694,VALID,112,VALID,0.335938,
2009-08-28, 02:27:05,VALID,1009.27,VALID,0,VALID,97.0453,VALID,0,VALID,23.8694,VALID,112,VALID,0.327344,
2009-08-28, 02:28:05,VALID,1009.28,VALID,0,VALID,97.0072,VALID,0,VALID,23.8694,VALID,112,VALID,0.0902344,
2009-08-28, 02:29:05,VALID,1009.26,VALID,0,VALID,96.9538,VALID,0,VALID,23.8694,VALID,112,VALID,0,
2009-08-28, 02:30:05,VALID,1009.26,VALID,0,VALID,96.931,VALID,0,VALID,23.8304,VALID,112,VALID,0,
2009-08-28, 02:31:05,VALID,1009.25,VALID,0,VALID,96.9081,VALID,0,VALID,23.8109,VALID,112,VALID,0,
2009-08-28, 02:32:05,VALID,1009.23,VALID,0,VALID,96.9233,VALID,0.105969,VALID,23.7896,VALID,112,VALID,0,
2009-08-28, 02:33:05,VALID,1009.22,VALID,0,VALID,96.9386,VALID,0,VALID,23.7914,VALID,112,VALID,0,
2009-08-28, 02:34:05,VALID,1009.16,VALID,0,VALID,96.9843,VALID,0,VALID,23.772,VALID,112,VALID,0,
2009-08-28, 02:35:05,VALID,1009.16,VALID,0,VALID,97.053,VALID,0,VALID,23.7701,VALID,112,VALID,0,
2009-08-28, 02:36:05,VALID,1009.17,VALID,0,VALID,97.1292,VALID,0,VALID,23.772,VALID,112,VALID,0,
2009-08-28, 02:37:05,VALID,1009.15,VALID,0,VALID,97.1597,VALID,0,VALID,23.7914,VALID,112,VALID,0,
2009-08-28, 02:38:05,VALID,1009.19,VALID,0,VALID,97.2055,VALID,0,VALID,23.7525,VALID,112,VALID,0,
2009-08-28, 02:39:05,VALID,1009.18,VALID,0,VALID,97.236,VALID,0,VALID,23.7525,VALID,112,VALID,0.191016,
2009-08-28, 02:40:05,VALID,1009.18,VALID,0,VALID,97.2817,VALID,0,VALID,23.7117,VALID,112,VALID,0,
2009-08-28, 02:41:05,VALID,1009.17,VALID,0,VALID,97.3199,VALID,0,VALID,23.733,VALID,112,VALID,0,
2009-08-28, 02:42:05,VALID,1009.19,VALID,0,VALID,97.3504,VALID,0,VALID,23.7135,VALID,112,VALID,0,
2009-08-28, 02:43:05,VALID,1009.22,VALID,0,VALID,97.4037,VALID,0,VALID,23.694,VALID,112,VALID,0,
2009-08-28, 02:44:05,VALID,1009.24,VALID,0,VALID,97.4266,VALID,0,VALID,23.6532,VALID,112,VALID,0,
2009-08-28, 02:45:05,VALID,1009.25,VALID,0,VALID,97.4571,VALID,0,VALID,23.6745,VALID,112,VALID,0,
2009-08-28, 02:46:05,VALID,1009.23,VALID,0,VALID,97.4724,VALID,0,VALID,23.6356,VALID,112,VALID,0,
2009-08-28, 02:47:05,VALID,1009.26,VALID,0,VALID,97.48,VALID,0,VALID,23.6161,VALID,112,VALID,0,
2009-08-28, 02:48:05,VALID,1009.24,VALID,0,VALID,97.5029,VALID,0,VALID,23.5948,VALID,112,VALID,0,
2009-08-28, 02:49:05,VALID,1009.23,VALID,0,VALID,97.5258,VALID,0,VALID,23.5966,VALID,112,VALID,0,
2009-08-28, 02:50:05,VALID,1009.24,VALID,0,VALID,97.541,VALID,0.105969,VALID,23.5771,VALID,112,VALID,0,
2009-08-28, 02:51:05,VALID,1009.24,VALID,0,VALID,97.5715,VALID,0,VALID,23.5381,VALID,112,VALID,0,
2009-08-28, 02:52:05,VALID,1009.28,VALID,0,VALID,97.5944,VALID,0,VALID,23.5381,VALID,112,VALID,0,
2009-08-28, 02:53:05,VALID,1009.26,VALID,0,VALID,97.6325,VALID,0.105969,VALID,23.5169,VALID,112,VALID,0,
2009-08-28, 02:54:05,VALID,1009.3,VALID,0,VALID,97.6706,VALID,0,VALID,23.5381,VALID,112,VALID,0,
2009-08-28, 02:55:05,VALID,1009.3,VALID,0,VALID,97.7012,VALID,0,VALID,23.5381,VALID,112,VALID,0,
2009-08-28, 02:56:05,VALID,1009.32,VALID,0,VALID,97.7317,VALID,0.105969,VALID,23.5381,VALID,112,VALID,0,
2009-08-28, 02:57:05,VALID,1009.35,VALID,0,VALID,97.7469,VALID,0,VALID,23.5186,VALID,112,VALID,0,
2009-08-28, 02:58:05,VALID,1009.36,VALID,0,VALID,97.7545,VALID,0,VALID,23.5186,VALID,112,VALID,0,
2009-08-28, 02:59:05,VALID,1009.38,VALID,0,VALID,97.7927,VALID,0,VALID,23.5169,VALID,112,VALID,0,
2009-08-28, 03:00:05,VALID,1009.34,VALID,0,VALID,97.8003,VALID,0,VALID,23.4974,VALID,342,VALID,0.455859,
2009-08-28, 03:01:05,VALID,1009.34,VALID,0,VALID,97.8079,VALID,0,VALID,23.5186,VALID,342,VALID,0.696484,
2009-08-28, 03:02:05,VALID,1009.33,VALID,0,VALID,97.8079,VALID,0,VALID,23.5186,VALID,342,VALID,0.488281,
2009-08-28, 03:03:05,VALID,1009.31,VALID,0,VALID,97.8155,VALID,0.105969,VALID,23.5186,VALID,341,VALID,0.153906,
2009-08-28, 03:04:05,VALID,1009.32,VALID,0,VALID,97.8003,VALID,0,VALID,23.4779,VALID,341,VALID,0,
2009-08-28, 03:05:05,VALID,1009.3,VALID,0,VALID,97.8155,VALID,0,VALID,23.4974,VALID,342,VALID,0.35,
2009-08-28, 03:06:05,VALID,1009.31,VALID,0,VALID,97.8155,VALID,0,VALID,23.5186,VALID,342,VALID,0.436328,
2009-08-28, 03:07:05,VALID,1009.3,VALID,0,VALID,97.8308,VALID,0,VALID,23.4797,VALID,342,VALID,0.385547,
2009-08-28, 03:08:05,VALID,1009.31,VALID,0,VALID,97.8079,VALID,0,VALID,23.4602,VALID,342,VALID,0.303516,
2009-08-28, 03:09:05,VALID,1009.33,VALID,0,VALID,97.8003,VALID,0,VALID,23.4797,VALID,342,VALID,0.321875,
2009-08-28, 03:10:05,VALID,1009.33,VALID,0,VALID,97.8384,VALID,0,VALID,23.4797,VALID,341,VALID,0.110156,
2009-08-28, 03:11:05,VALID,1009.37,VALID,0,VALID,97.8537,VALID,0.105969,VALID,23.4584,VALID,341,VALID,0,
2009-08-28, 03:12:05,VALID,1009.37,VALID,0,VALID,97.8689,VALID,0,VALID,23.4797,VALID,342,VALID,0.315234,
2009-08-28, 03:13:05,VALID,1009.38,VALID,0,VALID,97.8689,VALID,0.105969,VALID,23.4584,VALID,342,VALID,0.273047,
2009-08-28, 03:14:05,VALID,1009.4,VALID,0,VALID,97.8765,VALID,0,VALID,23.4797,VALID,341,VALID,0.390625,
2009-08-28, 03:15:05,VALID,1009.4,VALID,0,VALID,97.9071,VALID,0.105969,VALID,23.4797,VALID,342,VALID,0.505469,
2009-08-28, 03:16:05,VALID,1009.37,VALID,0,VALID,97.8918,VALID,0,VALID,23.4602,VALID,342,VALID,0.321875,
2009-08-28, 03:17:05,VALID,1009.39,VALID,0,VALID,97.8918,VALID,0,VALID,23.4407,VALID,342,VALID,0.246875,
2009-08-28, 03:18:05,VALID,1009.39,VALID,0,VALID,97.8842,VALID,0,VALID,23.4407,VALID,342,VALID,0.408203,
2009-08-28, 03:19:05,VALID,1009.38,VALID,0,VALID,97.8689,VALID,0,VALID,23.4407,VALID,342,VALID,0,
2009-08-28, 03:20:05,VALID,1009.39,VALID,0,VALID,97.8765,VALID,0,VALID,23.4212,VALID,342,VALID,0,
2009-08-28, 03:21:05,VALID,1009.38,VALID,0,VALID,97.8689,VALID,0,VALID,23.4212,VALID,342,VALID,0,
2009-08-28, 03:22:05,VALID,1009.4,VALID,0,VALID,97.8765,VALID,0,VALID,23.4212,VALID,342,VALID,0,
2009-08-28, 03:23:05,VALID,1009.38,VALID,0,VALID,97.8765,VALID,0,VALID,23.4017,VALID,341,VALID,0,
2009-08-28, 03:24:05,VALID,1009.35,VALID,0,VALID,97.8689,VALID,0,VALID,23.4017,VALID,342,VALID,0,
2009-08-28, 03:25:05,VALID,1009.36,VALID,0,VALID,97.8689,VALID,0,VALID,23.4017,VALID,342,VALID,0,
2009-08-28, 03:26:05,VALID,1009.32,VALID,0,VALID,97.8537,VALID,0,VALID,23.4017,VALID,342,VALID,0,
2009-08-28, 03:27:05,VALID,1009.34,VALID,0,VALID,97.8308,VALID,0,VALID,23.4017,VALID,342,VALID,0,
2009-08-28, 03:28:05,VALID,1009.34,VALID,0,VALID,97.846,VALID,0,VALID,23.4017,VALID,342,VALID,0,
2009-08-28, 03:29:05,VALID,1009.33,VALID,0,VALID,97.8308,VALID,0,VALID,23.3805,VALID,341,VALID,0,
2009-08-28, 03:30:05,VALID,1009.29,VALID,0,VALID,97.8079,VALID,0,VALID,23.4017,VALID,342,VALID,0,
2009-08-28, 03:31:05,VALID,1009.36,VALID,0,VALID,97.8003,VALID,0,VALID,23.3823,VALID,342,VALID,0,
2009-08-28, 03:32:05,VALID,1009.32,VALID,0,VALID,97.7927,VALID,0,VALID,23.4017,VALID,342,VALID,0,
2009-08-28, 03:33:05,VALID,1009.33,VALID,0,VALID,97.7698,VALID,0,VALID,23.4017,VALID,342,VALID,0,
2009-08-28, 03:34:05,VALID,1009.33,VALID,0,VALID,97.7774,VALID,0,VALID,23.4017,VALID,341,VALID,0,
2009-08-28, 03:35:05,VALID,1009.33,VALID,0,VALID,97.7622,VALID,0,VALID,23.4017,VALID,342,VALID,0,
2009-08-28, 03:36:05,VALID,1009.34,VALID,0,VALID,97.7774,VALID,0.105969,VALID,23.3805,VALID,341,VALID,0,
2009-08-28, 03:37:05,VALID,1009.32,VALID,0,VALID,97.7622,VALID,0.105969,VALID,23.4017,VALID,342,VALID,0,
2009-08-28, 03:38:05,VALID,1009.33,VALID,0,VALID,97.7622,VALID,0,VALID,23.3823,VALID,342,VALID,0,
2009-08-28, 03:39:05,VALID,1009.32,VALID,0,VALID,97.7698,VALID,0,VALID,23.3823,VALID,342,VALID,0,
2009-08-28, 03:40:05,VALID,1009.31,VALID,0,VALID,97.7698,VALID,0,VALID,23.4017,VALID,342,VALID,0,
2009-08-28, 03:41:05,VALID,1009.34,VALID,0,VALID,97.7622,VALID,0,VALID,23.4017,VALID,342,VALID,0,
2009-08-28, 03:42:05,VALID,1009.32,VALID,0,VALID,97.785,VALID,0,VALID,23.4212,VALID,341,VALID,0,
2009-08-28, 03:43:05,VALID,1009.32,VALID,0,VALID,97.7927,VALID,0,VALID,23.4,VALID,341,VALID,0,
2009-08-28, 03:44:05,VALID,1009.3,VALID,0,VALID,97.8079,VALID,0.105969,VALID,23.4212,VALID,342,VALID,0,
2009-08-28, 03:45:05,VALID,1009.3,VALID,0,VALID,97.8079,VALID,0,VALID,23.4212,VALID,342,VALID,0,
2009-08-28, 03:46:05,VALID,1009.3,VALID,0,VALID,97.8003,VALID,0,VALID,23.4212,VALID,342,VALID,0,
2009-08-28, 03:47:05,VALID,1009.29,VALID,0,VALID,97.7927,VALID,0,VALID,23.4,VALID,342,VALID,0,
2009-08-28, 03:48:05,VALID,1009.27,VALID,0,VALID,97.8079,VALID,0,VALID,23.4017,VALID,342,VALID,0,
2009-08-28, 03:49:05,VALID,1009.3,VALID,0,VALID,97.8079,VALID,0,VALID,23.4212,VALID,342,VALID,0,
2009-08-28, 03:50:05,VALID,1009.28,VALID,0,VALID,97.8079,VALID,0,VALID,23.4017,VALID,342,VALID,0,